Time,TemperatureF,DewpointF,PressureIn,WindDirection,WindDirectionDegrees,WindSpeedMPH,WindSpeedGustMPH,Humidity,HourlyPrecipIn,Conditions,Clouds,dailyrainin,SoftwareType,DateUTC
2013-04-13 00:07:00,47.5,47.0,30.00,WSW,246,0.0,0.0,96,0.00,,,0.00,weatherlink.com 1.10,2013-04-13 05:07:00,
2013-04-13 00:22:00,47.6,47.0,30.00,WSW,246,0.0,0.0,96,0.00,,,0.00,weatherlink.com 1.10,2013-04-13 05:22:00,
2013-04-13 00:37:00,47.0,46.0,30.00,WSW,246,0.0,0.0,96,0.00,,,0.00,weatherlink.com 1.10,2013-04-13 05:37:00,
2013-04-13 00:52:00,46.7,46.0,30.00,WSW,246,0.0,0.0,96,0.00,,,0.00,weatherlink.com 1.10,2013-04-13 05:52:00,
2013-04-13 01:07:00,46.1,45.0,30.01,WSW,246,0.0,0.0,97,0.00,,,0.00,weatherlink.com 1.10,2013-04-13 06:07:00,
2013-04-13 01:22:00,45.9,45.0,30.01,WSW,246,0.0,0.0,97,0.00,,,0.00,weatherlink.com 1.10,2013-04-13 06:22:00,
2013-04-13 02:07:00,44.8,44.0,30.02,WSW,246,0.0,0.0,98,0.00,,,0.00,weatherlink.com 1.10,2013-04-13 07:07:00,
2013-04-13 02:22:00,45.2,45.0,30.02,WSW,246,0.0,0.0,98,0.00,,,0.00,weatherlink.com 1.10,2013-04-13 07:22:00,
2013-04-13 02:37:00,44.9,44.0,30.02,WNW,300,0.0,2.0,98,0.00,,,0.00,weatherlink.com 1.10,2013-04-13 07:37:00,
2013-04-13 02:52:00,45.2,44.0,30.02,NNE,29,0.0,1.0,95,0.00,,,0.00,weatherlink.com 1.10,2013-04-13 07:52:00,
2013-04-13 03:07:00,45.5,43.0,30.02,NE,36,1.0,3.0,90,0.00,,,0.00,weatherlink.com 1.10,2013-04-13 08:07:00,
2013-04-13 03:37:00,45.8,41.0,30.03,NNE,31,1.0,5.0,83,0.00,,,0.00,weatherlink.com 1.10,2013-04-13 08:37:00,
2013-04-13 04:07:00,45.0,40.0,30.04,NE,34,0.0,1.0,83,0.00,,,0.00,weatherlink.com 1.10,2013-04-13 09:07:00,
2013-04-13 04:22:00,44.3,40.0,30.04,NNE,18,0.0,2.0,84,0.00,,,0.00,weatherlink.com 1.10,2013-04-13 09:22:00,
2013-04-13 04:52:00,43.5,39.0,30.05,NE,56,0.0,1.0,85,0.00,,,0.00,weatherlink.com 1.10,2013-04-13 09:52:00,
2013-04-13 05:07:00,43.5,39.0,30.05,NNE,33,1.0,4.0,84,0.00,,,0.00,weatherlink.com 1.10,2013-04-13 10:07:00,
2013-04-13 05:22:00,43.5,39.0,30.05,NW,316,0.0,3.0,84,0.00,,,0.00,weatherlink.com 1.10,2013-04-13 10:22:00,
2013-04-13 05:37:00,43.1,38.0,30.05,NNW,336,0.0,0.0,83,0.00,,,0.00,weatherlink.com 1.10,2013-04-13 10:37:00,
2013-04-13 05:52:00,42.7,38.0,30.06,WNW,298,0.0,2.0,84,0.00,,,0.00,weatherlink.com 1.10,2013-04-13 10:52:00,
2013-04-13 06:08:00,41.8,38.0,30.06,WNW,297,0.0,0.0,85,0.00,,,0.00,weatherlink.com 1.10,2013-04-13 11:08:00,
2013-04-13 06:23:00,41.1,38.0,30.06,NE,36,0.0,1.0,88,0.00,,,0.00,weatherlink.com 1.10,2013-04-13 11:23:00,
2013-04-13 06:53:00,41.3,38.0,30.08,NNE,18,0.0,0.0,88,0.00,,,0.00,weatherlink.com 1.10,2013-04-13 11:53:00,
2013-04-13 07:08:00,41.9,38.0,30.09,North,5,0.0,1.0,87,0.00,,,0.00,weatherlink.com 1.10,2013-04-13 12:08:00,
2013-04-13 07:23:00,43.1,39.0,30.09,North,358,0.0,2.0,84,0.00,,,0.00,weatherlink.com 1.10,2013-04-13 12:23:00,
2013-04-13 07:38:00,44.6,39.0,30.10,NW,305,1.0,4.0,81,0.00,,,0.00,weatherlink.com 1.10,2013-04-13 12:38:00,
2013-04-13 07:53:00,47.1,40.0,30.10,NW,321,2.0,4.0,75,0.00,,,0.00,weatherlink.com 1.10,2013-04-13 12:53:00,
2013-04-13 08:08:00,48.9,39.0,30.11,North,356,1.0,4.0,70,0.00,,,0.00,weatherlink.com 1.10,2013-04-13 13:08:00,
2013-04-13 08:38:00,51.7,41.0,30.11,ESE,118,0.0,4.0,67,0.00,,,0.00,weatherlink.com 1.10,2013-04-13 13:38:00,
2013-04-13 08:53:00,53.1,41.0,30.10,ENE,60,1.0,5.0,64,0.00,,,0.00,weatherlink.com 1.10,2013-04-13 13:53:00,
2013-04-13 09:08:00,53.9,41.0,30.10,NE,45,1.0,5.0,62,0.00,,,0.00,weatherlink.com 1.10,2013-04-13 14:08:00,
2013-04-13 09:23:00,54.5,41.0,30.10,NNW,338,3.0,5.0,61,0.00,,,0.00,weatherlink.com 1.10,2013-04-13 14:23:00,
2013-04-13 09:53:00,55.9,42.0,30.10,NW,304,0.0,3.0,61,0.00,,,0.00,weatherlink.com 1.10,2013-04-13 14:53:00,
2013-04-13 10:08:00,57.2,42.0,30.10,North,8,0.0,4.0,58,0.00,,,0.00,weatherlink.com 1.10,2013-04-13 15:08:00,
2013-04-13 10:23:00,58.1,41.0,30.09,WSW,238,0.0,4.0,54,0.00,,,0.00,weatherlink.com 1.10,2013-04-13 15:23:00,
2013-04-13 10:38:00,59.9,41.0,30.09,SW,219,0.0,3.0,50,0.00,,,0.00,weatherlink.com 1.10,2013-04-13 15:38:00,
2013-04-13 10:53:00,61.2,42.0,30.09,SE,138,1.0,4.0,49,0.00,,,0.00,weatherlink.com 1.10,2013-04-13 15:53:00,
2013-04-13 11:08:00,62.3,42.0,30.09,SSW,207,1.0,5.0,48,0.00,,,0.00,weatherlink.com 1.10,2013-04-13 16:08:00,
2013-04-13 11:23:00,62.8,44.0,30.08,ESE,120,1.0,4.0,50,0.00,,,0.00,weatherlink.com 1.10,2013-04-13 16:23:00,
2013-04-13 11:38:00,63.7,43.0,30.08,East,90,2.0,5.0,47,0.00,,,0.00,weatherlink.com 1.10,2013-04-13 16:38:00,
2013-04-13 11:53:00,63.4,42.0,30.08,ENE,72,1.0,5.0,46,0.00,,,0.00,weatherlink.com 1.10,2013-04-13 16:53:00,
2013-04-13 12:09:00,63.9,43.0,30.07,WNW,297,3.0,5.0,47,0.00,,,0.00,weatherlink.com 1.10,2013-04-13 17:09:00,
2013-04-13 12:24:00,65.1,43.0,30.06,NNE,27,1.0,4.0,45,0.00,,,0.00,weatherlink.com 1.10,2013-04-13 17:24:00,
2013-04-13 12:39:00,65.7,44.0,30.05,North,358,1.0,6.0,45,0.00,,,0.00,weatherlink.com 1.10,2013-04-13 17:39:00,
2013-04-13 12:54:00,65.9,41.0,30.05,NNE,30,2.0,6.0,40,0.00,,,0.00,weatherlink.com 1.10,2013-04-13 17:54:00,
2013-04-13 13:09:00,66.7,43.0,30.04,NNW,346,0.0,4.0,43,0.00,,,0.00,weatherlink.com 1.10,2013-04-13 18:09:00,
2013-04-13 13:24:00,68.9,43.0,30.04,NE,53,1.0,6.0,39,0.00,,,0.00,weatherlink.com 1.10,2013-04-13 18:24:00,
2013-04-13 13:39:00,68.2,42.0,30.03,South,191,2.0,4.0,39,0.00,,,0.00,weatherlink.com 1.10,2013-04-13 18:39:00,
2013-04-13 13:54:00,68.5,43.0,30.03,NNE,19,1.0,4.0,40,0.00,,,0.00,weatherlink.com 1.10,2013-04-13 18:54:00,
2013-04-13 14:09:00,69.3,45.0,30.03,NW,313,2.0,4.0,42,0.00,,,0.00,weatherlink.com 1.10,2013-04-13 19:09:00,
2013-04-13 14:24:00,71.7,46.0,30.02,East,84,1.0,3.0,40,0.00,,,0.00,weatherlink.com 1.10,2013-04-13 19:24:00,
2013-04-13 14:39:00,71.7,45.0,30.01,NE,53,0.0,3.0,39,0.00,,,0.00,weatherlink.com 1.10,2013-04-13 19:39:00,
2013-04-13 14:54:00,72.5,44.0,30.00,West,280,1.0,3.0,36,0.00,,,0.00,weatherlink.com 1.10,2013-04-13 19:54:00,
2013-04-13 15:09:00,71.4,44.0,30.00,ESE,117,1.0,5.0,37,0.00,,,0.00,weatherlink.com 1.10,2013-04-13 20:09:00,
2013-04-13 15:24:00,72.5,45.0,29.99,WNW,301,1.0,3.0,38,0.00,,,0.00,weatherlink.com 1.10,2013-04-13 20:24:00,
2013-04-13 15:39:00,73.4,45.0,29.99,NW,318,1.0,4.0,37,0.00,,,0.00,weatherlink.com 1.10,2013-04-13 20:39:00,
2013-04-13 15:54:00,73.1,44.0,29.98,WNW,298,2.0,3.0,35,0.00,,,0.00,weatherlink.com 1.10,2013-04-13 20:54:00,
2013-04-13 16:09:00,73.3,45.0,29.97,North,360,2.0,4.0,37,0.00,,,0.00,weatherlink.com 1.10,2013-04-13 21:09:00,
2013-04-13 16:24:00,74.2,42.0,29.97,NNE,32,1.0,3.0,32,0.00,,,0.00,weatherlink.com 1.10,2013-04-13 21:24:00,
2013-04-13 16:39:00,73.6,41.0,29.96,ENE,77,0.0,4.0,31,0.00,,,0.00,weatherlink.com 1.10,2013-04-13 21:39:00,
2013-04-13 16:54:00,74.5,43.0,29.96,WNW,293,0.0,3.0,33,0.00,,,0.00,weatherlink.com 1.10,2013-04-13 21:54:00,
2013-04-13 17:09:00,75.1,44.0,29.95,NE,48,1.0,2.0,33,0.00,,,0.00,weatherlink.com 1.10,2013-04-13 22:09:00,
2013-04-13 17:24:00,74.6,43.0,29.95,East,84,0.0,2.0,32,0.00,,,0.00,weatherlink.com 1.10,2013-04-13 22:24:00,
2013-04-13 17:39:00,74.8,45.0,29.94,North,358,2.0,3.0,34,0.00,,,0.00,weatherlink.com 1.10,2013-04-13 22:39:00,
2013-04-13 17:54:00,73.2,43.0,29.93,NE,46,3.0,3.0,34,0.00,,,0.00,weatherlink.com 1.10,2013-04-13 22:54:00,
2013-04-13 18:09:00,73.1,43.0,29.93,North,350,0.0,3.0,34,0.00,,,0.00,weatherlink.com 1.10,2013-04-13 23:09:00,
2013-04-13 18:24:00,72.3,44.0,29.93,NW,322,2.0,5.0,36,0.00,,,0.00,weatherlink.com 1.10,2013-04-13 23:24:00,
2013-04-13 18:39:00,72.4,45.0,29.93,NW,321,0.0,1.0,37,0.00,,,0.00,weatherlink.com 1.10,2013-04-13 23:39:00,
2013-04-13 18:54:00,70.8,45.0,29.93,SSW,209,0.0,1.0,40,0.00,,,0.00,weatherlink.com 1.10,2013-04-13 23:54:00,
2013-04-13 19:09:00,68.6,46.0,29.92,ENE,65,0.0,1.0,44,0.00,,,0.00,weatherlink.com 1.10,2013-04-14 00:09:00,
2013-04-13 19:24:00,66.8,46.0,29.92,ENE,65,0.0,0.0,47,0.00,,,0.00,weatherlink.com 1.10,2013-04-14 00:24:00,
2013-04-13 19:39:00,65.2,45.0,29.92,ENE,65,0.0,1.0,49,0.00,,,0.00,weatherlink.com 1.10,2013-04-14 00:39:00,
2013-04-13 19:54:00,64.1,45.0,29.93,ENE,65,0.0,0.0,51,0.00,,,0.00,weatherlink.com 1.10,2013-04-14 00:54:00,
2013-04-13 20:09:00,62.4,46.0,29.92,ENE,65,0.0,0.0,55,0.00,,,0.00,weatherlink.com 1.10,2013-04-14 01:09:00,
2013-04-13 20:24:00,61.7,46.0,29.92,ENE,65,0.0,0.0,57,0.00,,,0.00,weatherlink.com 1.10,2013-04-14 01:24:00,
2013-04-13 20:40:00,60.8,45.0,29.92,ENE,65,0.0,0.0,57,0.00,,,0.00,weatherlink.com 1.10,2013-04-14 01:40:00,
2013-04-13 20:55:00,59.5,46.0,29.93,ENE,65,0.0,0.0,61,0.00,,,0.00,weatherlink.com 1.10,2013-04-14 01:55:00,
2013-04-13 21:10:00,58.6,46.0,29.93,ENE,65,0.0,0.0,64,0.00,,,0.00,weatherlink.com 1.10,2013-04-14 02:10:00,
2013-04-13 21:25:00,57.8,47.0,29.93,ENE,65,0.0,0.0,67,0.00,,,0.00,weatherlink.com 1.10,2013-04-14 02:25:00,
2013-04-13 21:40:00,57.5,47.0,29.93,SSE,155,0.0,0.0,69,0.00,,,0.00,weatherlink.com 1.10,2013-04-14 02:40:00,
2013-04-13 21:55:00,56.9,47.0,29.92,SSE,155,0.0,0.0,69,0.00,,,0.00,weatherlink.com 1.10,2013-04-14 02:55:00,
2013-04-13 22:10:00,56.4,47.0,29.92,SSE,155,0.0,0.0,71,0.00,,,0.00,weatherlink.com 1.10,2013-04-14 03:10:00,
2013-04-13 22:25:00,55.5,46.0,29.92,SSE,155,0.0,0.0,71,0.00,,,0.00,weatherlink.com 1.10,2013-04-14 03:25:00,
2013-04-13 22:40:00,55.3,46.0,29.91,SSE,155,0.0,0.0,71,0.00,,,0.00,weatherlink.com 1.10,2013-04-14 03:40:00,
2013-04-13 22:55:00,54.4,46.0,29.91,SSE,155,0.0,0.0,74,0.00,,,0.00,weatherlink.com 1.10,2013-04-14 03:55:00,
2013-04-13 23:10:00,54.5,47.0,29.91,SSE,155,0.0,0.0,77,0.00,,,0.00,weatherlink.com 1.10,2013-04-14 04:10:00,
2013-04-13 23:25:00,53.7,48.0,29.91,SSE,155,0.0,0.0,80,0.00,,,0.00,weatherlink.com 1.10,2013-04-14 04:25:00,
2013-04-13 23:40:00,53.1,48.0,29.92,SSE,155,0.0,0.0,82,0.00,,,0.00,weatherlink.com 1.10,2013-04-14 04:40:00,
2013-04-13 23:55:00,52.9,48.0,29.92,SSE,155,0.0,0.0,84,0.00,,,0.00,weatherlink.com 1.10,2013-04-14 04:55:00,